Location: Eckley
(40.9930°N, 75.8630°W)
Time: 18:32:24
(UTC-04:00)

Daily predictions for brighter satellites

Satellite Brightness Start Highest point End
(mag) Time Altitude Azimuth Time Altitude Azimuth Time Altitude Azimuth
Cosmos 1709 Rocket 4.1 20:46:12 10° N 20:52:31 85° E 20:58:43 10° S
Cosmos 1743 3.8 20:49:58 10° NNE 20:53:23 29° ENE 20:56:49 10° SE
Iridium 4 Rocket 3.6 20:50:12 10° N 20:55:11 88° W 21:00:38 10° S
CZ-2D R/B 4.2 20:51:34 10° S 20:55:17 49° W 20:59:01 10° NNW
Envisat 3.1 20:51:20 10° SSE 20:56:22 70° ENE 21:01:26 10° N
Spot 1 4.2 20:54:42 10° SSE 20:59:15 66° ENE 21:03:34 10° N
ASTRO E2 4.2 20:57:07 10° SW 21:00:07 20° S 21:03:07 10° SE
ASTEX 1 4.4 20:57:45 10° SE 21:01:59 30° ENE 21:06:13 10° NNE
Aureole 3 Rocket 4.3 20:56:15 10° SSE 21:02:35 41° E 21:07:14 10° NNE
Tiangong 2 2.3 21:07:44 10° SSW 21:10:20 23° SSE 21:12:56 10° E
Aureole 1 Rocket 3.6 21:09:19 10° SSE 21:12:04 22° ESE 21:14:33 10° NE
NOSS 2-2 (E) 3.4 21:09:06 10° SSW 21:13:04 74° ESE 21:17:40 10° NE
DNEPR-1 R/B 4.4 21:12:39 10° NNW 21:16:35 36° NE 21:20:18 13° ESE
SL-08 ROCKET BODY 4.5 21:12:32 10° N 21:18:43 73° E 21:24:53 10° SSE
Meteor 2-4 Rocket 4.2 21:14:46 10° SSE 21:20:00 43° E 21:25:25 10° NNE
ISS -2.6 21:20:03 10° S 21:22:41 22° SE 21:25:21 10° E
USA 186 4.0 21:20:01 10° SSW 21:22:45 25° W 21:25:26 10° NW
Cosmos 1666 3.1 21:20:29 10° N 21:24:06 43° E 21:26:56 15° SSE
Meteor 2-13 Rocket 4.5 21:20:04 10° N 21:26:06 64° E 21:32:05 10° SSE
OAO 2 Rocket 3.9 21:22:31 10° WSW 21:27:04 37° S 21:31:02 13° ESE
Cosmos 923 Rocket 4.0 21:22:05 10° S 21:27:24 75° ESE 21:32:42 10° NNE
Cosmos 2184 Rocket 4.0 21:26:16 10° N 21:32:38 73° E 21:38:54 10° SSE
Cosmos 1536 Rocket 4.0 21:28:23 10° SSW 21:32:40 64° W 21:36:59 10° N
CZ-3A R/B 2.1 21:29:06 10° SSW 21:32:49 20° SSE 21:33:08 20° SE
Cosmos 2074 Rocket 4.0 21:26:35 10° N 21:32:51 76° E 21:39:06 10° SSE
Cosmos 1437 3.6 21:31:43 10° SSW 21:34:51 50° WNW 21:38:01 10° N
CZ-4B DEB 3.6 21:32:12 10° S 21:35:04 43° W 21:37:57 10° NNW
Helios 1A 4.1 21:31:09 10° S 21:35:11 43° W 21:39:14 10° NNW
USA 245 4.0 21:38:45 19° E 21:39:19 20° ENE 21:41:16 10° NNE
Meteor 1-29 4.0 21:36:46 10° N 21:40:02 46° WNW 21:43:15 10° SSW
Meteor 1-19 Rocket 4.3 21:35:21 10° S 21:41:12 89° WNW 21:46:59 10° N
YAOGAN 6 2.9 21:42:06 13° S 21:45:10 62° W 21:48:39 10° NNW
Cosmos 1656 Rocket 3.8 21:39:49 10° NNW 21:45:16 73° WSW 21:49:50 15° SSE
ERS-1 Rocket 2.9 21:41:29 14° SSE 21:45:50 86° ENE 21:50:53 10° NNW
Meteor 1-23 Rocket 4.3 21:43:45 10° S 21:49:09 58° E 21:54:39 10° NNE
MetOp-A 4.2 21:45:09 17° SSE 21:49:17 70° ENE 21:54:38 10° N
MOS 1-B Rocket 4.0 21:46:03 17° SSE 21:50:29 69° ENE 21:56:44 10° N
Cosmos 405 Rocket 3.4 21:48:13 10° SSW 21:51:52 53° WNW 21:55:37 10° N
GENESIS II 4.3 21:49:08 10° NNW 21:53:05 64° NE 21:55:01 27° SE
H-2A R/B 2.8 21:52:51 21° ESE 21:55:26 36° ENE 21:59:59 10° N
NOSS 2-2 (D) 4.5 21:52:16 10° SW 21:56:10 50° NW 22:00:41 10° NNE
Cosmos 2058 Rocket 4.4 21:53:35 10° NNE 21:57:10 24° ENE 21:58:34 21° ESE
Meteor 1-15 Rocket 4.3 21:52:32 10° N 21:58:04 58° ENE 22:01:25 23° SSE
Cosmos 2112 Rocket 4.0 21:54:59 10° SSW 22:00:13 85° WNW 22:05:27 10° NNE
Cosmos 192 4.2 21:55:59 10° SSW 22:00:53 80° ESE 22:05:48 10° NNE
Cosmos 1943 Rocket 4.2 21:56:43 10° NW 22:00:59 23° W 22:05:13 10° SSW
Cosmos 1025 Rocket 2.9 21:58:34 18° S 22:01:37 72° E 22:05:53 10° NNE
CENTAUR R/B 3.4 21:54:59 10° NW 22:02:53 65° WSW 22:09:18 18° SSE
Cosmos 1441 Rocket 3.3 22:01:18 13° SSW 22:04:35 74° W 22:08:20 10° N
Nadezhda 1 Rocket 4.2 22:01:23 10° S 22:07:43 79° W 22:14:09 10° N
Cosmos 1624 Rocket 4.4 22:03:16 10° N 22:08:25 51° ENE 22:10:57 28° SE
PSLV R/B 2.9 22:06:46 10° W 22:09:54 86° S 22:10:40 48° ESE
NOAA 11 4.3 22:07:48 19° S 22:11:50 72° WSW 22:17:17 10° NNW
Cosmos 2154 Rocket 4.0 22:09:52 10° N 22:16:16 85° E 22:20:26 23° S
SL-08 RB Rocket 3.6 22:14:43 32° SSE 22:16:44 76° ENE 22:21:13 10° N
ARGOS 3.1 22:13:33 25° SSE 22:16:51 89° WSW 22:22:19 10° NNW
COSMOS 2406 4.1 22:11:18 10° SW 22:16:52 51° WNW 22:22:27 10° NNE
Nimbus 7 Rocket 4.4 22:11:54 10° NNE 22:17:58 68° ESE 22:22:26 19° S
SL-27 R/B 3.3 22:14:55 10° SSW 22:18:29 52° WNW 22:22:05 10° N
Landsat 7 4.2 22:21:40 34° ESE 22:23:20 49° ENE 22:27:56 10° N
SPOT 5 2.7 22:23:05 31° S 22:25:03 72° WSW 22:29:24 10° NNW
H-2A R/B 3.1 22:24:49 29° E 22:26:00 34° ENE 22:30:06 10° N
Cosmos 2278 4.3 22:20:52 10° NNW 22:26:22 46° ENE 22:28:45 30° ESE
Cosmos 2056 Rocket 3.5 22:22:00 10° NNW 22:27:11 69° ENE 22:29:09 37° SE
Cosmos 2082 Rocket 2.9 22:28:02 31° ESE 22:28:43 31° ESE 22:33:39 10° NE
Cosmos 405 4.2 22:30:17 10° NNW 22:33:36 36° W 22:34:56 26° SW
Terra 2.2 22:37:12 39° ESE 22:38:25 48° ENE 22:42:59 10° N
CZ-4B R/B 4.5 22:34:44 10° NE 22:39:05 28° E 22:39:09 28° E
Cosmos 839 Rocket 4.4 22:34:36 10° NNW 22:41:09 74° ENE 22:44:54 33° SE
Meteor 2-19 Rocket 4.5 22:35:05 10° N 22:41:14 81° W 22:44:22 31° S
Cosmos 2341 Rocket 4.1 22:37:59 10° N 22:44:20 80° W 22:47:39 31° S
Cosmos 967 Rocket 4.3 22:38:25 10° SSW 22:44:39 80° ESE 22:50:58 10° NNE
Cosmos 2369 3.8 22:39:19 10° NNW 22:45:02 64° ENE 22:46:58 40° SE
SPOT 1/Viking Rocket 3.7 22:44:17 34° S 22:46:29 67° WSW 22:51:37 10° NNW
COSMOS 2487 3.1 22:47:21 43° ENE 22:47:21 43° ENE 22:50:05 10° NNE
Tiangong 2 2.3 22:43:40 10° WSW 22:45:36 34° WSW 22:45:36 34° WSW
Cosmos 1437 Rocket 3.5 22:44:50 10° NNW 22:48:31 46° W 22:49:25 38° SW
Cosmos 1697 Rocket 3.5 22:49:27 10° N 22:54:42 39° ENE 22:56:25 31° E
IGS 5A 3.4 22:56:43 66° ESE 22:57:02 70° ENE 23:01:11 10° N
ISS -2.6 22:55:52 10° WSW 22:59:01 42° NNW 23:02:11 10° NE
Cosmos 1452 Rocket 3.8 22:54:16 10° N 22:59:27 55° ENE 23:00:34 46° ESE
Cosmos 2218 Rocket 3.9 22:54:33 10° N 23:00:43 72° E 23:02:38 46° SSE
Cosmos 1892 Rocket 4.3 23:01:37 30° SW 23:03:24 49° W 23:07:43 10° N
Cosmos 1271 Rocket 4.4 23:02:59 10° NNE 23:05:37 23° ENE 23:05:37 23° ENE
Cosmos 2228 3.0 23:02:08 10° NNW 23:06:26 70° W 23:06:53 63° SW
Cosmos 1602 Rocket 3.6 23:10:37 62° ENE 23:10:37 62° ENE 23:14:43 10° NNE
deb Chang Zheng 4 3.4 23:06:54 10° NNE 23:11:14 87° ESE 23:11:26 81° S
OAO 2 Rocket 4.2 23:06:44 10° WSW 23:10:00 33° SW 23:10:00 33° SW
Cosmos 921 Rocket 3.3 23:08:01 10° NNW 23:12:26 58° WSW 23:12:53 54° SW
Cosmos 1833 Rocket 2.6 23:11:23 55° SSE 23:12:27 69° ESE 23:18:03 10° NNE
Cosmos 1656 3.5 23:09:48 10° NNW 23:15:16 79° ENE 23:16:17 60° SE
Cosmos 1066 Rocket 4.1 23:15:05 46° SSW 23:16:45 80° W 23:22:23 10° N
Meteor 1-21 4.4 23:19:44 51° ESE 23:20:17 53° E 23:25:50 10° NNE
SL-19 R/B 4.1 23:15:56 10° NNE 23:21:20 78° WNW 23:22:49 48° SSW
Cosmos 468 4.4 23:24:10 68° SE 23:24:29 70° ESE 23:29:45 10° NNE
CZ-4 R/B 3.9 23:20:43 10° NNE 23:25:46 87° WNW 23:26:31 66° SSW
Cosmos 1766 3.9 23:22:02 10° N 23:25:11 50° NNE 23:25:11 50° NNE
Nadezhda 3 Rocket 4.2 23:29:12 48° ESE 23:30:10 52° E 23:36:19 10° NNE
Meteor 1-4 Rocket 3.5 23:27:33 10° NNW 23:30:20 44° NW 23:30:20 44° NW
Cosmos 1809 Rocket 4.5 23:25:20 10° NNW 23:31:23 72° W 23:32:56 51° SSW
USA 267 3.1 23:24:56 10° NE 23:31:29 69° SE 23:34:02 39° SSW
Meteor 2-14 Rocket 4.3 23:27:50 10° N 23:33:58 87° E 23:35:08 61° SSE
H-2A R/B 3.5 23:33:29 22° WSW 23:34:56 25° W 23:39:02 10° NW
CARTOSAT-1 4.5 23:36:38 38° WSW 23:36:45 38° W 23:40:48 10° NNW
Cosmos 1980 Rocket 2.5 23:36:03 10° NNW 23:41:38 55° ENE 23:42:26 50° E
SME Rocket 3.9 23:46:35 53° E 23:47:04 56° ENE 23:51:25 10° N
SeaSat 1 3.2 23:46:39 38° ENE 23:47:17 40° ENE 23:51:54 10° NNW
Cosmos 1821 Rocket 4.4 23:43:17 10° N 23:49:21 49° ENE 23:50:18 46° ESE
Cosmos 2322 Rocket 3.8 23:45:10 10° N 23:49:50 25° NE 23:51:43 21° E
Meteor 2-16 Rocket 4.4 23:47:28 10° NNW 23:53:36 75° W 23:54:38 61° SSW
